THOR ABLESTAR DEB, 261

Orbit data source: Space-Track

THOR ABLESTAR DEB, 261 is space debris in LEO originally from a launch on Thu, 29 Jun 1961 UTC launched from the Air Force Eastern Test Range (AFETR). Debris objects in space refer to the collection of defunct objects orbiting the Earth. Examples of debris include non-operational satellites, rocket bodies, and fragments generated from explosions, collisions, or faulty payload assembly.

Loading next visibility...
Identifier
261, 1961-015CH
Orbit
LEO
Country
Flag of USUS
Related business
Manufacturer
Unknown
Mission
Spacecraft
Bus & Motor
Unknown
Mass
Unknown
Launch date (UTC)
1961-06-29 (65 years ago)
Launch vehicle
Unknown
Launch site
Air Force Eastern Test Range (AFETR)
Object type
Payload
Rocket body
Debris
Shape & HBR
Unknown shape, 0.1 m
Radar Cross Section
Small (<0.1 m²)

Expand to show TLE details & history
Last TLE update: 6 hours ago

TLE from 6 hours ago
0 THOR ABLESTAR DEB
1   261U 61015CH  26095.48095056  .00000155  00000-0  15146-3 0  9992
2   261  66.6804 233.8404 0085610  19.8157 340.6217 14.01023054301902
Epoch: 2026-04-05T11:32Z
TLE epoch observation values (Epoch: 2026-04-05T11:32:34.128Z)
Latitude
-0.00006°
Longitude
-133.08758°
Altitude
833.685 km
Speed
7.466 km/s
True Right ascension
15h 35m 21s
True Declination
0° 00' 00"
Sunlit
Object was in full shadow at epoch
Visualization orbit readout
Latitude
Unknown
Longitude
Unknown
Altitude
Unknown
Speed
Unknown
Apparent Right ascension
Unknown
Apparent Declination
Unknown
Sunlit
N/A
Visualization observer readout
Local Sidereal Time
23:25:05
Azimuth
Unknown
Elevation
Unknown
Doppler factor
Unknown
Orbital elements
Apogee altitude
950.865 km
Perigee altitude
826.443 km
Semi-major axis
7,266.791 km
Eccentricity
0.00856
Inclination
66.6804°
RAAN
233.8404°
Arg. of periapsis
19.8157°
True anomaly
340.29288°
Mean anomaly
340.6217°
Eccentric anomaly
340.45762°
Mean motion
3.50372 °/min
Orbital period
102.75 mins
BSTAR
0.00015146
Loading maneuver chart data...
Computing Atmospheric mass density...
Loading historical data...
Loading historical data...
Loading historical data...
Loading historical data...
Loading historical data...
Loading historical data...
Loading historical data...

Documentation

Showing up to 5 results
|